Home > Weather > Samara > Past weeks

Flag for Russia Weather for the Past 2 Weeks in Samara, Russia

Now
66 °F

Passing clouds.


Feels Like: 66 °F
Forecast: 53 / 71 °F
Wind: 6 mph from Southeast

Location: Samara

Current Time: May 6, 2016 at 11:48:26 AM

Latest Report: May 6, 2016 at 11:00 AM


Visibility: N/A

Pressure: 30.01 "Hg

Humidity: 43%

Dew Point: 43 °F

Location of SamaraLocation

Historic Weather in Samara — Graph

°F

Samara Temperature Yesterday

Maximum temperature yesterday: 66 °F (at 2:30 PM)
Minimum temperature yesterday: 48 °F (at 4:30 AM)
Average temperature yesterday: 57 °F

High & Low Weather Summary for the Past Weeks

 TemperatureHumidityPressure
High72 °F (Apr 26, 2:00 PM)100% (May 1, 5:30 AM)30.30 "Hg (May 1, 5:30 AM)
Low36 °F (Apr 23, 12:30 AM)28% (Apr 27, 7:30 PM)29.56 "Hg (Apr 21, 9:30 PM)
Average52 °F67%30.00 "Hg
* Reported Apr 21 10:00 AM — May 6 10:30 AM, Samara, Weather by CustomWeather, © 2016

Note: Actual official high and low records may vary slightly from our data, if they occured in-between our weather recording intervals... More about our weather records

Advertising

Samara Weather History for the Previous 24 Hours

Scroll right to see more
 ConditionsComfort  
Time TempWeatherWind HumidityBarometerVisibility
10:30 AM
Fri, May 6
64 °FPassing clouds.3 mph49%30.01 "HgN/A
10:00 AM63 °FSunny.3 mph56%30.01 "Hg10 mi
9:30 AM61 °FSunny.1 mph59%30.01 "Hg10 mi
9:00 AM59 °FSunny.1 mph63%30.01 "Hg10 mi
8:30 AM55 °FSunny.6 mph72%30.01 "Hg10 mi
8:00 AM55 °FSunny.6 mph77%30.01 "Hg10 mi
7:30 AM54 °FSunny.6 mph77%29.98 "Hg10 mi
7:00 AM52 °FSunny.1 mph82%29.98 "Hg10 mi
6:30 AM50 °FSunny.6 mph82%29.98 "Hg10 mi
6:00 AM50 °FPassing clouds.6 mph82%29.98 "HgN/A
5:30 AM50 °FPassing clouds.6 mph82%29.98 "HgN/A
5:00 AM50 °FClear.6 mph82%29.98 "Hg10 mi
4:30 AM50 °FClear.6 mph82%29.98 "Hg10 mi
4:00 AM50 °FClear.3 mph82%29.98 "Hg10 mi
3:30 AM52 °FClear.3 mph77%29.98 "Hg10 mi
3:00 AM52 °FClear.6 mph77%29.98 "Hg10 mi
2:30 AM52 °FClear.3 mph77%29.98 "Hg10 mi
2:00 AM52 °FClear.3 mph77%29.98 "Hg10 mi
1:30 AM52 °FPassing clouds.3 mph77%29.98 "HgN/A
1:00 AM52 °FClear.8 mph82%29.98 "Hg10 mi
12:30 AM54 °FClear.8 mph77%29.98 "Hg10 mi
12:00 AM54 °FClear.3 mph77%29.98 "Hg10 mi
11:30 PM
Thu, May 5
54 °FClear.6 mph77%29.98 "Hg10 mi
11:00 PM54 °FClear.6 mph82%29.98 "Hg10 mi
10:30 PM55 °FClear.8 mph77%29.98 "Hg10 mi
10:00 PM55 °FClear.6 mph72%29.98 "Hg10 mi
9:30 PM57 °FClear.6 mph67%29.95 "Hg10 mi
9:00 PM57 °FSunny.3 mph72%29.95 "Hg10 mi
8:30 PM59 °FSunny.6 mph63%29.95 "Hg10 mi
8:00 PM61 °FBroken clouds.6 mph55%29.95 "HgN/A
7:30 PM61 °FBroken clouds.3 mph55%29.95 "HgN/A
7:00 PM63 °FBroken clouds.6 mph52%29.92 "HgN/A
6:30 PM64 °FScattered clouds.3 mph46%29.92 "HgN/A
6:00 PM64 °FScattered clouds.1 mph43%29.92 "HgN/A
5:30 PM64 °FBroken clouds.8 mph46%29.92 "HgN/A
5:00 PM66 °FScattered clouds.6 mph40%29.92 "HgN/A
4:30 PM66 °FScattered clouds.3 mph43%29.89 "HgN/A
4:00 PM64 °FBroken clouds.8 mph49%29.92 "HgN/A
3:30 PM64 °FBroken clouds.10 mph46%29.92 "HgN/A
3:00 PM66 °FBroken clouds.8 mph43%29.92 "HgN/A
2:30 PM66 °FBroken clouds.6 mph46%29.92 "HgN/A
2:00 PM64 °FScattered clouds.6 mph49%29.92 "HgN/A
1:30 PM64 °FScattered clouds.10 mph52%29.92 "HgN/A
1:00 PM64 °FScattered clouds.8 mph49%29.89 "HgN/A
12:30 PM63 °FBroken clouds.8 mph56%29.92 "HgN/A
12:00 PM61 °FBroken clouds.8 mph63%29.92 "HgN/A
11:30 AM61 °FBroken clouds.8 mph68%29.92 "HgN/A
11:00 AM61 °FMore clouds than sun.3 mph63%29.89 "HgN/A
Weather by CustomWeather, © 2016

See weather overviewHow to use our weather pages